Year,Month,Day,Hour,Minute,Value (Times are PST for temperature in C)
2019,03,22,00,00,10.80
2019,03,22,00,01,10.90
2019,03,22,00,02,10.90
2019,03,22,00,03,10.90
2019,03,22,00,04,10.90
2019,03,22,00,05,10.90
2019,03,22,00,06,11.00
2019,03,22,00,07,10.90
2019,03,22,00,08,11.00
2019,03,22,00,09,11.00
2019,03,22,00,10,11.00
2019,03,22,00,11,11.10
2019,03,22,00,12,11.10
2019,03,22,00,13,11.10
2019,03,22,00,14,11.10
2019,03,22,00,15,11.10
2019,03,22,00,16,11.10
2019,03,22,00,17,11.10
2019,03,22,00,18,11.10
2019,03,22,00,19,11.10
2019,03,22,00,20,11.10
2019,03,22,00,21,11.10
2019,03,22,00,22,11.10
2019,03,22,00,23,11.10
2019,03,22,00,24,11.10
2019,03,22,00,25,11.10
2019,03,22,00,26,11.10
2019,03,22,00,27,11.10
2019,03,22,00,28,11.10
2019,03,22,00,29,11.10
2019,03,22,00,30,11.10
2019,03,22,00,31,11.10
2019,03,22,00,32,11.10
2019,03,22,00,33,11.10
2019,03,22,00,34,11.10
2019,03,22,00,35,11.00
2019,03,22,00,36,11.00
2019,03,22,00,37,11.00
2019,03,22,00,38,11.00
2019,03,22,00,39,10.90
2019,03,22,00,40,10.90
2019,03,22,00,41,10.90
2019,03,22,00,42,10.80
2019,03,22,00,43,10.80
2019,03,22,00,44,10.80
2019,03,22,00,45,10.80
2019,03,22,00,46,10.80
2019,03,22,00,47,10.80
2019,03,22,00,48,10.70
2019,03,22,00,49,10.70
2019,03,22,00,50,10.70
2019,03,22,00,51,10.70
2019,03,22,00,52,10.70
2019,03,22,00,53,10.60
2019,03,22,00,54,10.60
2019,03,22,00,55,10.60
2019,03,22,00,56,10.60
2019,03,22,00,57,10.60
2019,03,22,00,58,10.60
2019,03,22,00,59,10.60
2019,03,22,01,00,10.60
2019,03,22,01,01,10.50
2019,03,22,01,02,10.50
2019,03,22,01,03,10.40
2019,03,22,01,04,10.40
2019,03,22,01,05,10.40
2019,03,22,01,06,10.40
2019,03,22,01,07,10.30
2019,03,22,01,08,10.30
2019,03,22,01,09,10.30
2019,03,22,01,10,10.20
2019,03,22,01,11,10.20
2019,03,22,01,12,10.20
2019,03,22,01,13,10.20
2019,03,22,01,14,10.10
2019,03,22,01,15,10.10
2019,03,22,01,16,10.10
2019,03,22,01,17,10.10
2019,03,22,01,18,10.00
2019,03,22,01,19,10.00
2019,03,22,01,20,10.00
2019,03,22,01,21,9.90
2019,03,22,01,22,9.90
2019,03,22,01,23,9.90
2019,03,22,01,24,9.90
2019,03,22,01,25,9.90
2019,03,22,01,26,9.90
2019,03,22,01,27,9.80
2019,03,22,01,28,9.80
2019,03,22,01,29,9.80
2019,03,22,01,30,9.80
2019,03,22,01,31,9.80
2019,03,22,01,32,9.80
2019,03,22,01,33,9.80
2019,03,22,01,34,9.80
2019,03,22,01,35,9.80
2019,03,22,01,36,9.70
2019,03,22,01,37,9.70
2019,03,22,01,38,9.70
2019,03,22,01,39,9.60
2019,03,22,01,40,9.60
2019,03,22,01,41,9.60
2019,03,22,01,42,9.60
2019,03,22,01,43,9.60
2019,03,22,01,44,9.60
2019,03,22,01,45,9.60
2019,03,22,01,46,9.60
2019,03,22,01,47,9.60
2019,03,22,01,48,9.60
2019,03,22,01,49,9.60
2019,03,22,01,50,9.50
2019,03,22,01,51,9.50
2019,03,22,01,52,9.40
2019,03,22,01,53,9.40
2019,03,22,01,54,9.40
2019,03,22,01,55,9.40
2019,03,22,01,56,9.30
2019,03,22,01,57,9.30
2019,03,22,01,58,9.30
2019,03,22,01,59,9.30
2019,03,22,02,00,9.30
2019,03,22,02,01,9.30
2019,03,22,02,02,9.30
2019,03,22,02,03,9.20
2019,03,22,02,04,9.20
2019,03,22,02,05,9.20
2019,03,22,02,06,9.20
2019,03,22,02,07,9.20
2019,03,22,02,08,9.20
2019,03,22,02,09,9.20
2019,03,22,02,10,9.10
2019,03,22,02,11,9.10
2019,03,22,02,12,9.10
2019,03,22,02,13,9.10
2019,03,22,02,14,9.10
2019,03,22,02,15,9.00
2019,03,22,02,16,9.00
2019,03,22,02,17,9.00
2019,03,22,02,18,9.00
2019,03,22,02,19,8.90
2019,03,22,02,20,8.90
2019,03,22,02,21,8.90
2019,03,22,02,22,8.90
2019,03,22,02,23,8.90
2019,03,22,02,24,8.90
2019,03,22,02,25,8.90
2019,03,22,02,26,8.90
2019,03,22,02,27,8.80
2019,03,22,02,28,8.80
2019,03,22,02,29,8.80
2019,03,22,02,30,8.80
2019,03,22,02,31,8.70
2019,03,22,02,32,8.70
2019,03,22,02,33,8.60
2019,03,22,02,34,8.60
2019,03,22,02,35,8.50
2019,03,22,02,36,8.50
2019,03,22,02,37,8.40
2019,03,22,02,38,8.40
2019,03,22,02,39,8.30
2019,03,22,02,40,8.30
2019,03,22,02,41,8.30
2019,03,22,02,42,8.30
2019,03,22,02,43,8.20
2019,03,22,02,44,8.20
2019,03,22,02,45,8.20
2019,03,22,02,46,8.20
2019,03,22,02,47,8.20
2019,03,22,02,48,8.10
2019,03,22,02,49,8.10
2019,03,22,02,50,8.10
2019,03,22,02,51,8.10
2019,03,22,02,52,8.10
2019,03,22,02,53,8.00
2019,03,22,02,54,8.00
2019,03,22,02,55,8.00
2019,03,22,02,56,7.90
2019,03,22,02,57,7.90
2019,03,22,02,58,7.90
2019,03,22,02,59,7.90
2019,03,22,03,00,7.90
2019,03,22,03,01,7.90
2019,03,22,03,02,7.80
2019,03,22,03,03,7.80
2019,03,22,03,04,7.80
2019,03,22,03,05,7.80
2019,03,22,03,06,7.80
2019,03,22,03,07,7.80
2019,03,22,03,08,7.80
2019,03,22,03,09,7.70
2019,03,22,03,10,7.70
2019,03,22,03,11,7.70
2019,03,22,03,12,7.70
2019,03,22,03,13,7.70
2019,03,22,03,14,7.70
2019,03,22,03,15,7.70
2019,03,22,03,16,7.70
2019,03,22,03,17,7.70
2019,03,22,03,18,7.70
2019,03,22,03,19,7.70
2019,03,22,03,20,7.70
2019,03,22,03,21,7.70
2019,03,22,03,22,7.70
2019,03,22,03,23,7.70
2019,03,22,03,24,7.70
2019,03,22,03,25,7.60
2019,03,22,03,26,7.60
2019,03,22,03,27,7.60
2019,03,22,03,28,7.50
2019,03,22,03,29,7.50
2019,03,22,03,30,7.50
2019,03,22,03,31,7.40
2019,03,22,03,32,7.40
2019,03,22,03,33,7.40
2019,03,22,03,34,7.40
2019,03,22,03,35,7.30
2019,03,22,03,36,7.30
2019,03,22,03,37,7.30
2019,03,22,03,38,7.30
2019,03,22,03,39,7.30
2019,03,22,03,40,7.30
2019,03,22,03,41,7.30
2019,03,22,03,42,7.40
2019,03,22,03,43,7.50
2019,03,22,03,44,7.60
2019,03,22,03,45,7.60
2019,03,22,03,46,7.70
2019,03,22,03,47,7.70
2019,03,22,03,48,7.80
2019,03,22,03,49,7.90
2019,03,22,03,50,8.00
2019,03,22,03,51,8.00
2019,03,22,03,52,8.10
2019,03,22,03,53,8.10
2019,03,22,03,54,8.10
2019,03,22,03,55,8.20
2019,03,22,03,56,8.20
2019,03,22,03,57,8.20
2019,03,22,03,58,8.30
2019,03,22,03,59,8.30
2019,03,22,04,00,8.40
2019,03,22,04,01,8.40
2019,03,22,04,02,8.40
2019,03,22,04,03,8.40
2019,03,22,04,04,8.40
2019,03,22,04,05,8.40
2019,03,22,04,06,8.40
2019,03,22,04,07,8.40
2019,03,22,04,08,8.40
2019,03,22,04,09,8.40
2019,03,22,04,10,8.40
2019,03,22,04,11,8.40
2019,03,22,04,12,8.40
2019,03,22,04,13,8.40
2019,03,22,04,14,8.40
2019,03,22,04,15,8.40
2019,03,22,04,16,8.40
2019,03,22,04,17,8.40
2019,03,22,04,18,8.40
2019,03,22,04,19,8.40
2019,03,22,04,20,8.40
2019,03,22,04,21,8.40
2019,03,22,04,22,8.30
2019,03,22,04,23,8.30
2019,03,22,04,24,8.30
2019,03,22,04,25,8.30
2019,03,22,04,26,8.30
2019,03,22,04,27,8.30
2019,03,22,04,28,8.30
2019,03,22,04,29,8.20
2019,03,22,04,30,8.20
2019,03,22,04,31,8.20
2019,03,22,04,32,8.20
2019,03,22,04,33,8.20
2019,03,22,04,34,8.20
2019,03,22,04,35,8.20
2019,03,22,04,36,8.20
2019,03,22,04,37,8.20
2019,03,22,04,38,8.20
2019,03,22,04,39,8.20
2019,03,22,04,40,8.20
2019,03,22,04,41,8.20
2019,03,22,04,42,8.20
2019,03,22,04,43,8.30
2019,03,22,04,44,8.30
2019,03,22,04,45,8.30
2019,03,22,04,46,8.30
2019,03,22,04,47,8.30
2019,03,22,04,48,8.30
2019,03,22,04,49,8.30
2019,03,22,04,50,8.30
2019,03,22,04,51,8.20
2019,03,22,04,52,8.30
2019,03,22,04,53,8.20
2019,03,22,04,54,8.20
2019,03,22,04,55,8.30
2019,03,22,04,56,8.30
2019,03,22,04,57,8.30
2019,03,22,04,58,8.30
2019,03,22,04,59,8.30
2019,03,22,05,00,8.30
2019,03,22,05,01,8.30
2019,03,22,05,02,8.30
2019,03,22,05,03,8.30
2019,03,22,05,04,8.30
2019,03,22,05,05,8.30
2019,03,22,05,06,8.30
2019,03,22,05,07,8.30
2019,03,22,05,08,8.30
2019,03,22,05,09,8.20
2019,03,22,05,10,8.20
2019,03,22,05,11,8.20
2019,03,22,05,12,8.20
2019,03,22,05,13,8.20
2019,03,22,05,14,8.20
2019,03,22,05,15,8.20
2019,03,22,05,16,8.20
2019,03,22,05,17,8.20
2019,03,22,05,18,8.20
2019,03,22,05,19,8.20
2019,03,22,05,20,8.20
2019,03,22,05,21,8.20
2019,03,22,05,22,8.20
2019,03,22,05,23,8.20
2019,03,22,05,24,8.20
2019,03,22,05,25,8.20
2019,03,22,05,26,8.20
2019,03,22,05,27,8.20
2019,03,22,05,28,8.20
2019,03,22,05,29,8.20
2019,03,22,05,30,8.10
2019,03,22,05,31,8.10
2019,03,22,05,32,8.10
2019,03,22,05,33,8.10
2019,03,22,05,34,8.10
2019,03,22,05,35,8.10
2019,03,22,05,36,8.00
2019,03,22,05,37,8.00
2019,03,22,05,38,7.90
2019,03,22,05,39,7.90
2019,03,22,05,40,7.80
2019,03,22,05,41,7.80
2019,03,22,05,42,7.70
2019,03,22,05,43,7.70
2019,03,22,05,44,7.60
2019,03,22,05,45,7.60
2019,03,22,05,46,7.50
2019,03,22,05,47,7.40
2019,03,22,05,48,7.40
2019,03,22,05,49,7.30
2019,03,22,05,50,7.30
2019,03,22,05,51,7.20
2019,03,22,05,52,7.20
2019,03,22,05,53,7.10
2019,03,22,05,54,7.10
2019,03,22,05,55,7.00
2019,03,22,05,56,6.90
2019,03,22,05,57,6.90
2019,03,22,05,58,6.80
2019,03,22,05,59,6.80
2019,03,22,06,00,6.80
2019,03,22,06,01,6.70
2019,03,22,06,02,6.70
2019,03,22,06,03,6.70
2019,03,22,06,04,6.60
2019,03,22,06,05,6.60
2019,03,22,06,06,6.60
2019,03,22,06,07,6.60
2019,03,22,06,08,6.50
2019,03,22,06,09,6.50
2019,03,22,06,10,6.50
2019,03,22,06,11,6.40
2019,03,22,06,12,6.40
2019,03,22,06,13,6.40
2019,03,22,06,14,6.40
2019,03,22,06,15,6.30
2019,03,22,06,16,6.30
2019,03,22,06,17,6.30
2019,03,22,06,18,6.30
2019,03,22,06,19,6.30
2019,03,22,06,20,6.30
2019,03,22,06,21,6.30
2019,03,22,06,22,6.30
2019,03,22,06,23,6.20
2019,03,22,06,24,6.20
2019,03,22,06,25,6.20
2019,03,22,06,26,6.10
2019,03,22,06,27,6.10
2019,03,22,06,28,6.10
2019,03,22,06,29,6.00
2019,03,22,06,30,6.00
2019,03,22,06,31,6.00
2019,03,22,06,32,6.00
2019,03,22,06,33,6.00
2019,03,22,06,34,6.10
2019,03,22,06,35,6.10
2019,03,22,06,36,6.10
2019,03,22,06,37,6.20
2019,03,22,06,38,6.20
2019,03,22,06,39,6.20
2019,03,22,06,40,6.10
2019,03,22,06,41,6.20
2019,03,22,06,42,6.20
2019,03,22,06,43,6.20
2019,03,22,06,44,6.20
2019,03,22,06,45,6.20
2019,03,22,06,46,6.20
2019,03,22,06,47,6.20
2019,03,22,06,48,6.10
2019,03,22,06,49,6.10
2019,03,22,06,50,6.10
2019,03,22,06,51,6.10
2019,03,22,06,52,6.10
2019,03,22,06,53,6.10
2019,03,22,06,54,6.10
2019,03,22,06,55,6.00
2019,03,22,06,56,6.00
2019,03,22,06,57,6.00
2019,03,22,06,58,6.00
2019,03,22,06,59,5.90
2019,03,22,07,00,5.90
2019,03,22,07,01,5.90
2019,03,22,07,02,5.90
2019,03,22,07,03,5.80
2019,03,22,07,04,5.80
2019,03,22,07,05,5.80
2019,03,22,07,06,5.80
2019,03,22,07,07,5.80
2019,03,22,07,08,5.80
2019,03,22,07,09,5.70
2019,03,22,07,10,5.70
2019,03,22,07,11,5.70
2019,03,22,07,12,5.70
2019,03,22,07,13,5.70
2019,03,22,07,14,5.70
2019,03,22,07,15,5.70
2019,03,22,07,16,5.70
2019,03,22,07,17,5.70
2019,03,22,07,18,5.70
2019,03,22,07,19,5.70
2019,03,22,07,20,5.70
2019,03,22,07,21,5.70
2019,03,22,07,22,5.70
2019,03,22,07,23,5.70
2019,03,22,07,24,5.70
2019,03,22,07,25,5.70
2019,03,22,07,26,5.70
2019,03,22,07,27,5.70
2019,03,22,07,28,5.70
2019,03,22,07,29,5.70
2019,03,22,07,30,5.60
2019,03,22,07,31,5.60
2019,03,22,07,32,5.60
2019,03,22,07,33,5.60
2019,03,22,07,34,5.50
2019,03,22,07,35,5.50
2019,03,22,07,36,5.50
2019,03,22,07,37,5.50
2019,03,22,07,38,5.40
2019,03,22,07,39,5.40
2019,03,22,07,40,5.40
2019,03,22,07,41,5.40
2019,03,22,07,42,5.40
2019,03,22,07,43,5.50
2019,03,22,07,44,5.50
2019,03,22,07,45,5.50
2019,03,22,07,46,5.50
2019,03,22,07,47,5.50
2019,03,22,07,48,5.50
2019,03,22,07,49,5.40
2019,03,22,07,50,5.40
2019,03,22,07,51,5.40
2019,03,22,07,52,5.40
2019,03,22,07,53,5.40
2019,03,22,07,54,5.30
2019,03,22,07,55,5.30
2019,03,22,07,56,5.40
2019,03,22,07,57,5.40
2019,03,22,07,58,5.50
2019,03,22,07,59,5.50
2019,03,22,08,00,5.60
2019,03,22,08,01,5.60
2019,03,22,08,02,5.70
2019,03,22,08,03,5.70
2019,03,22,08,04,5.80
2019,03,22,08,05,5.80
2019,03,22,08,06,5.90
2019,03,22,08,07,5.90
2019,03,22,08,08,6.00
2019,03,22,08,09,6.10
2019,03,22,08,10,6.10
2019,03,22,08,11,6.20
2019,03,22,08,12,6.20
2019,03,22,08,13,6.30
2019,03,22,08,14,6.30
2019,03,22,08,15,6.30
2019,03,22,08,16,6.40
2019,03,22,08,17,6.40
2019,03,22,08,18,6.40
2019,03,22,08,19,6.40
2019,03,22,08,20,6.40
2019,03,22,08,21,6.50
2019,03,22,08,22,6.60
2019,03,22,08,23,6.60
2019,03,22,08,24,6.60
2019,03,22,08,25,6.60
2019,03,22,08,26,6.60
2019,03,22,08,27,6.60
2019,03,22,08,28,6.60
2019,03,22,08,29,6.60
2019,03,22,08,30,6.60
2019,03,22,08,31,6.60
2019,03,22,08,32,6.60
2019,03,22,08,33,6.50
2019,03,22,08,34,6.50
2019,03,22,08,35,6.50
2019,03,22,08,36,6.40
2019,03,22,08,37,6.40
2019,03,22,08,38,6.40
2019,03,22,08,39,6.40
2019,03,22,08,40,6.40
2019,03,22,08,41,6.40
2019,03,22,08,42,6.40
2019,03,22,08,43,6.40
2019,03,22,08,44,6.40
2019,03,22,08,45,6.40
2019,03,22,08,46,6.30
2019,03,22,08,47,6.30
2019,03,22,08,48,6.30
2019,03,22,08,49,6.40
2019,03,22,08,50,6.40
2019,03,22,08,51,6.50
2019,03,22,08,52,6.50
2019,03,22,08,53,6.50
2019,03,22,08,54,6.50
2019,03,22,08,55,6.50
2019,03,22,08,56,6.50
2019,03,22,08,57,6.60
2019,03,22,08,58,6.60
2019,03,22,08,59,6.70
2019,03,22,09,00,6.70
2019,03,22,09,01,6.70
2019,03,22,09,02,6.70
2019,03,22,09,03,6.80
2019,03,22,09,04,6.80
2019,03,22,09,05,6.90
2019,03,22,09,06,7.00
2019,03,22,09,07,7.00
2019,03,22,09,08,7.10
2019,03,22,09,09,7.20
2019,03,22,09,10,7.20
2019,03,22,09,11,7.20
2019,03,22,09,12,7.20
2019,03,22,09,13,7.30
2019,03,22,09,14,7.30
2019,03,22,09,15,7.30
2019,03,22,09,16,7.30
2019,03,22,09,17,7.40
2019,03,22,09,18,7.40
2019,03,22,09,19,7.40
2019,03,22,09,20,7.50
2019,03,22,09,21,7.50
2019,03,22,09,22,7.60
2019,03,22,09,23,7.70
2019,03,22,09,24,7.80
2019,03,22,09,25,7.80
2019,03,22,09,26,7.80
2019,03,22,09,27,7.80
2019,03,22,09,28,7.80
2019,03,22,09,29,7.90
2019,03,22,09,30,7.90
2019,03,22,09,31,7.90
2019,03,22,09,32,8.00
2019,03,22,09,33,8.10
2019,03,22,09,34,8.20
2019,03,22,09,35,8.20
2019,03,22,09,36,8.30
2019,03,22,09,37,8.40
2019,03,22,09,38,8.50
2019,03,22,09,39,8.50
2019,03,22,09,40,8.60
2019,03,22,09,41,8.60
2019,03,22,09,42,8.60
2019,03,22,09,43,8.60
2019,03,22,09,44,8.70
2019,03,22,09,45,8.70
2019,03,22,09,46,8.70
2019,03,22,09,47,8.70
2019,03,22,09,48,8.80
2019,03,22,09,49,8.80
2019,03,22,09,50,8.80
2019,03,22,09,51,8.90
2019,03,22,09,52,8.90
2019,03,22,09,53,8.90
2019,03,22,09,54,8.90
2019,03,22,09,55,8.90
2019,03,22,09,56,8.90
2019,03,22,09,57,8.90
2019,03,22,09,58,8.90
2019,03,22,09,59,8.90
2019,03,22,10,00,8.90
2019,03,22,10,01,9.00
2019,03,22,10,02,9.00
2019,03,22,10,03,9.00
2019,03,22,10,04,9.00
2019,03,22,10,05,9.10
2019,03,22,10,06,9.10
2019,03,22,10,07,9.10
2019,03,22,10,08,9.20
2019,03,22,10,09,9.20
2019,03,22,10,10,9.20
2019,03,22,10,11,9.20
2019,03,22,10,12,9.30
2019,03,22,10,13,9.30
2019,03,22,10,14,9.30
2019,03,22,10,15,9.30
2019,03,22,10,16,9.30
2019,03,22,10,17,9.30
2019,03,22,10,18,9.30
2019,03,22,10,19,9.30
2019,03,22,10,20,9.30
2019,03,22,10,21,9.30
2019,03,22,10,22,9.30
2019,03,22,10,23,9.30
2019,03,22,10,24,9.30
2019,03,22,10,25,9.30
2019,03,22,10,26,9.30
2019,03,22,10,27,9.30
2019,03,22,10,28,9.30
2019,03,22,10,29,9.40
2019,03,22,10,30,9.30
2019,03,22,10,31,9.30
2019,03,22,10,32,9.30
2019,03,22,10,33,9.30
2019,03,22,10,34,9.30
2019,03,22,10,35,9.30
2019,03,22,10,36,9.30
2019,03,22,10,37,9.30
2019,03,22,10,38,9.30
2019,03,22,10,39,9.40
2019,03,22,10,40,9.40
2019,03,22,10,41,9.40
2019,03,22,10,42,9.50
2019,03,22,10,43,9.50
2019,03,22,10,44,9.50
2019,03,22,10,45,9.50
2019,03,22,10,46,9.50
2019,03,22,10,47,9.60
2019,03,22,10,48,9.50
2019,03,22,10,49,9.50
2019,03,22,10,50,9.60
2019,03,22,10,51,9.60
2019,03,22,10,52,9.60
2019,03,22,10,53,9.60
2019,03,22,10,54,9.60
2019,03,22,10,55,9.60
2019,03,22,10,56,9.60
2019,03,22,10,57,9.60
2019,03,22,10,58,9.60
2019,03,22,10,59,9.60
2019,03,22,11,00,9.60
2019,03,22,11,01,9.60
2019,03,22,11,02,9.60
2019,03,22,11,03,9.60
2019,03,22,11,04,9.60
2019,03,22,11,05,9.60
2019,03,22,11,06,9.60
2019,03,22,11,07,9.60
2019,03,22,11,08,9.60
2019,03,22,11,09,9.60
2019,03,22,11,10,9.60
2019,03,22,11,11,9.60
2019,03,22,11,12,9.60
2019,03,22,11,13,9.60
2019,03,22,11,14,9.60
2019,03,22,11,15,9.60
2019,03,22,11,16,9.60
2019,03,22,11,17,9.60
2019,03,22,11,18,9.60
2019,03,22,11,19,9.60
2019,03,22,11,20,9.70
2019,03,22,11,21,9.70
2019,03,22,11,22,9.70
2019,03,22,11,23,9.70
2019,03,22,11,24,9.70
2019,03,22,11,25,9.80
2019,03,22,11,26,9.80
2019,03,22,11,27,9.80
2019,03,22,11,28,9.80
2019,03,22,11,29,9.90
2019,03,22,11,30,9.90
2019,03,22,11,31,9.90
2019,03,22,11,32,10.00
2019,03,22,11,33,10.00
2019,03,22,11,34,10.00
2019,03,22,11,35,10.00
2019,03,22,11,36,10.00
2019,03,22,11,37,10.10
2019,03,22,11,38,10.20
2019,03,22,11,39,10.20
2019,03,22,11,40,10.20
2019,03,22,11,41,10.30
2019,03,22,11,42,10.30
2019,03,22,11,43,10.40
2019,03,22,11,44,10.40
2019,03,22,11,45,10.60
2019,03,22,11,46,10.70
2019,03,22,11,47,10.80
2019,03,22,11,48,10.80
2019,03,22,11,49,10.90
2019,03,22,11,50,10.90
2019,03,22,11,51,10.90
2019,03,22,11,52,11.00
2019,03,22,11,53,11.10
2019,03,22,11,54,11.20
2019,03,22,11,55,11.40
2019,03,22,11,56,11.50
2019,03,22,11,57,11.70
2019,03,22,11,58,11.80
2019,03,22,11,59,12.00
2019,03,22,12,00,12.20
2019,03,22,12,01,12.20
2019,03,22,12,02,12.10
2019,03,22,12,03,12.00
2019,03,22,12,04,11.90
2019,03,22,12,05,11.80
2019,03,22,12,06,11.80
2019,03,22,12,07,11.90
2019,03,22,12,08,12.00
2019,03,22,12,09,12.10
2019,03,22,12,10,12.20
2019,03,22,12,11,12.20
2019,03,22,12,12,12.20
2019,03,22,12,13,12.20
2019,03,22,12,14,12.20
2019,03,22,12,15,12.20
2019,03,22,12,16,12.20
2019,03,22,12,17,12.20
2019,03,22,12,18,12.20
2019,03,22,12,19,12.20
2019,03,22,12,20,12.20
2019,03,22,12,21,12.20
2019,03,22,12,22,12.20
2019,03,22,12,23,12.20
2019,03,22,12,24,12.30
2019,03,22,12,25,12.40
2019,03,22,12,26,12.50
2019,03,22,12,27,12.60
2019,03,22,12,28,12.70
2019,03,22,12,29,12.80
2019,03,22,12,30,12.90
2019,03,22,12,31,13.00
2019,03,22,12,32,13.10
2019,03,22,12,33,13.10
2019,03,22,12,34,13.20
2019,03,22,12,35,13.20
2019,03,22,12,36,13.30
2019,03,22,12,37,13.20
2019,03,22,12,38,13.20
2019,03,22,12,39,13.10
2019,03,22,12,40,13.10
2019,03,22,12,41,12.90
2019,03,22,12,42,12.80
2019,03,22,12,43,12.80
2019,03,22,12,44,12.90
2019,03,22,12,45,13.00
2019,03,22,12,46,13.10
2019,03,22,12,47,13.20
2019,03,22,12,48,13.30
2019,03,22,12,49,13.30
2019,03,22,12,50,13.30
2019,03,22,12,51,13.20
2019,03,22,12,52,13.20
2019,03,22,12,53,13.20
2019,03,22,12,54,13.20
2019,03,22,12,55,13.10
2019,03,22,12,56,13.20
2019,03,22,12,57,13.20
2019,03,22,12,58,13.10
2019,03,22,12,59,13.10
2019,03,22,13,00,13.10
2019,03,22,13,01,13.00
2019,03,22,13,02,13.00
2019,03,22,13,03,13.00
2019,03,22,13,04,13.10
2019,03,22,13,05,13.10
2019,03,22,13,06,13.20
2019,03,22,13,07,13.30
2019,03,22,13,08,13.40
2019,03,22,13,09,13.40
2019,03,22,13,10,13.50
2019,03,22,13,11,13.50
2019,03,22,13,12,13.50
2019,03,22,13,13,13.40
2019,03,22,13,14,13.40
2019,03,22,13,15,13.40
2019,03,22,13,16,13.30
2019,03,22,13,17,13.30
2019,03,22,13,18,13.30
2019,03,22,13,19,13.40
2019,03,22,13,20,13.50
2019,03,22,13,21,13.40
2019,03,22,13,22,13.30
2019,03,22,13,23,13.30
2019,03,22,13,24,13.30
2019,03,22,13,25,13.20
2019,03,22,13,26,13.00
2019,03,22,13,27,13.00
2019,03,22,13,28,12.90
2019,03,22,13,29,13.00
2019,03,22,13,30,13.00
2019,03,22,13,31,13.00
2019,03,22,13,32,13.00
2019,03,22,13,33,13.00
2019,03,22,13,34,12.90
2019,03,22,13,35,12.90
2019,03,22,13,36,12.90
2019,03,22,13,37,12.80
2019,03,22,13,38,12.80
2019,03,22,13,39,12.80
2019,03,22,13,40,12.80
2019,03,22,13,41,12.70
2019,03,22,13,42,12.70
2019,03,22,13,43,12.60
2019,03,22,13,44,12.60
2019,03,22,13,45,12.50
2019,03,22,13,46,12.50
2019,03,22,13,47,12.50
2019,03,22,13,48,12.60
2019,03,22,13,49,12.60
2019,03,22,13,50,12.70
2019,03,22,13,51,12.70
2019,03,22,13,52,12.70
2019,03,22,13,53,12.70
2019,03,22,13,54,12.70
2019,03,22,13,55,12.70
2019,03,22,13,56,12.70
2019,03,22,13,57,12.70
2019,03,22,13,58,12.70
2019,03,22,13,59,12.70
2019,03,22,14,00,12.80
2019,03,22,14,01,12.80
2019,03,22,14,02,12.80
2019,03,22,14,03,12.80
2019,03,22,14,04,12.70
2019,03,22,14,05,12.70
2019,03,22,14,06,12.70
2019,03,22,14,07,12.70
2019,03,22,14,08,12.70
2019,03,22,14,09,12.70
2019,03,22,14,10,12.70
2019,03,22,14,11,12.70
2019,03,22,14,12,12.70
2019,03,22,14,13,12.70
2019,03,22,14,14,12.70
2019,03,22,14,15,12.70
2019,03,22,14,16,12.70
2019,03,22,14,17,12.70
2019,03,22,14,18,12.70
2019,03,22,14,19,12.70
2019,03,22,14,20,12.70
2019,03,22,14,21,12.70
2019,03,22,14,22,12.70
2019,03,22,14,23,12.70
2019,03,22,14,24,12.60
2019,03,22,14,25,12.60
2019,03,22,14,26,12.70
2019,03,22,14,27,12.70
2019,03,22,14,28,12.70
2019,03,22,14,29,12.70
2019,03,22,14,30,12.80
2019,03,22,14,31,12.80
2019,03,22,14,32,12.90
2019,03,22,14,33,12.90
2019,03,22,14,34,13.00
2019,03,22,14,35,13.00
2019,03,22,14,36,13.10
2019,03,22,14,37,13.10
2019,03,22,14,38,13.10
2019,03,22,14,39,13.10
2019,03,22,14,40,13.10
2019,03,22,14,41,13.10
2019,03,22,14,42,13.10
2019,03,22,14,43,13.10
2019,03,22,14,44,13.10
2019,03,22,14,45,13.10
2019,03,22,14,46,13.10
2019,03,22,14,47,13.10
2019,03,22,14,48,13.20
2019,03,22,14,49,13.20
2019,03,22,14,50,13.20
2019,03,22,14,51,13.20
2019,03,22,14,52,13.20
2019,03,22,14,53,13.30
2019,03,22,14,54,13.30
2019,03,22,14,55,13.30
2019,03,22,14,56,13.20
2019,03,22,14,57,13.20
2019,03,22,14,58,13.20
2019,03,22,14,59,13.20
2019,03,22,15,00,13.30
2019,03,22,15,01,13.30
2019,03,22,15,02,13.30
2019,03,22,15,03,13.30
2019,03,22,15,04,13.30
2019,03,22,15,05,13.30
2019,03,22,15,06,13.30
2019,03,22,15,07,13.40
2019,03,22,15,08,13.40
2019,03,22,15,09,13.40
2019,03,22,15,10,13.40
2019,03,22,15,11,13.40
2019,03,22,15,12,13.40
2019,03,22,15,13,13.40
2019,03,22,15,14,13.40
2019,03,22,15,15,13.40
2019,03,22,15,16,13.40
2019,03,22,15,17,13.40
2019,03,22,15,18,13.40
2019,03,22,15,19,13.40
2019,03,22,15,20,13.40
2019,03,22,15,21,13.40
2019,03,22,15,22,13.40
2019,03,22,15,23,13.40
2019,03,22,15,24,13.40
2019,03,22,15,25,13.40
2019,03,22,15,26,13.40
2019,03,22,15,27,13.40
2019,03,22,15,28,13.40
2019,03,22,15,29,13.40
2019,03,22,15,30,13.40
2019,03,22,15,31,13.40
2019,03,22,15,32,13.40
2019,03,22,15,33,13.40
2019,03,22,15,34,13.40
2019,03,22,15,35,13.40
2019,03,22,15,36,13.40
2019,03,22,15,37,13.40
2019,03,22,15,38,13.40
2019,03,22,15,39,13.40
2019,03,22,15,40,13.40
2019,03,22,15,41,13.40
2019,03,22,15,42,13.40
2019,03,22,15,43,13.40
2019,03,22,15,44,13.40
2019,03,22,15,45,13.40
2019,03,22,15,46,13.40
2019,03,22,15,47,13.40
2019,03,22,15,48,13.40
2019,03,22,15,49,13.40
2019,03,22,15,50,13.40
2019,03,22,15,51,13.40
2019,03,22,15,52,13.40
2019,03,22,15,53,13.30
2019,03,22,15,54,13.30
2019,03,22,15,55,13.30
2019,03,22,15,56,13.20
2019,03,22,15,57,13.20
2019,03,22,15,58,13.20
2019,03,22,15,59,13.10
2019,03,22,16,00,13.10
2019,03,22,16,01,13.10
2019,03,22,16,02,13.10
2019,03,22,16,03,13.10
2019,03,22,16,04,13.10
2019,03,22,16,05,13.10
2019,03,22,16,06,13.20
2019,03,22,16,07,13.20
2019,03,22,16,08,13.20
2019,03,22,16,09,13.20
2019,03,22,16,10,13.20
2019,03,22,16,11,13.20
2019,03,22,16,12,13.30
2019,03,22,16,13,13.30
2019,03,22,16,14,13.30
2019,03,22,16,15,13.30
2019,03,22,16,16,13.30
2019,03,22,16,17,13.40
2019,03,22,16,18,13.40
2019,03,22,16,19,13.40
2019,03,22,16,20,13.40
2019,03,22,16,21,13.40
2019,03,22,16,22,13.50
2019,03,22,16,23,13.50
2019,03,22,16,24,13.50
2019,03,22,16,25,13.50
2019,03,22,16,26,13.50
2019,03,22,16,27,13.50
2019,03,22,16,28,13.50
2019,03,22,16,29,13.50
2019,03,22,16,30,13.50
2019,03,22,16,31,13.40
2019,03,22,16,32,13.40
2019,03,22,16,33,13.30
2019,03,22,16,34,13.30
2019,03,22,16,35,13.30
2019,03,22,16,36,13.30
2019,03,22,16,37,13.30
2019,03,22,16,38,13.30
2019,03,22,16,39,13.30
2019,03,22,16,40,13.20
2019,03,22,16,41,13.20
2019,03,22,16,42,13.20
2019,03,22,16,43,13.20
2019,03,22,16,44,13.20
2019,03,22,16,45,13.20
2019,03,22,16,46,13.20
2019,03,22,16,47,13.30
2019,03,22,16,48,13.30
2019,03,22,16,49,13.30
2019,03,22,16,50,13.30
2019,03,22,16,51,13.30
2019,03,22,16,52,13.30
2019,03,22,16,53,13.30
2019,03,22,16,54,13.30
2019,03,22,16,55,13.30
2019,03,22,16,56,13.30
2019,03,22,16,57,13.30
2019,03,22,16,58,13.30
2019,03,22,16,59,13.30
2019,03,22,17,00,13.20
2019,03,22,17,01,13.20
2019,03,22,17,02,13.20
2019,03,22,17,03,13.20
2019,03,22,17,04,13.20
2019,03,22,17,05,13.20
2019,03,22,17,06,13.20
2019,03,22,17,07,13.20
2019,03,22,17,08,13.20
2019,03,22,17,09,13.20
2019,03,22,17,10,13.30
2019,03,22,17,11,13.30
2019,03,22,17,12,13.30
2019,03,22,17,13,13.30
2019,03,22,17,14,13.40
2019,03,22,17,15,13.40
2019,03,22,17,16,13.40
2019,03,22,17,17,13.40
2019,03,22,17,18,13.40
2019,03,22,17,19,13.40
2019,03,22,17,20,13.30
2019,03,22,17,21,13.30
2019,03,22,17,22,13.30
2019,03,22,17,23,13.30
2019,03,22,17,24,13.20
2019,03,22,17,25,13.20
2019,03,22,17,26,13.10
2019,03,22,17,27,13.10
2019,03,22,17,28,13.10
2019,03,22,17,29,13.10
2019,03,22,17,30,13.00
2019,03,22,17,31,13.00
2019,03,22,17,32,13.00
2019,03,22,17,33,12.90
2019,03,22,17,34,12.90
2019,03,22,17,35,12.90
2019,03,22,17,36,12.90
2019,03,22,17,37,12.90
2019,03,22,17,38,13.00
2019,03,22,17,39,13.10
2019,03,22,17,40,13.10
2019,03,22,17,41,13.10
2019,03,22,17,42,13.10
2019,03,22,17,43,13.20
2019,03,22,17,44,13.20
2019,03,22,17,45,13.20
2019,03,22,17,46,13.20